This is the latest recevied weather packets stored in our database for station/object G8SIB-9. If no packets are shown the sender has not sent any weather packets the latest 10 day(s).
| Time | Temp. | Humidity | Pressure | Rain* | Wind** | Luminosity | Snow |
|---|---|---|---|---|---|---|---|
| 1777622866 | 17.22° C | 34% | 1018.8 hPa | 0 mm | - | - | - |
| 1777622265 | 16.67° C | 37% | 1018.8 hPa | 0 mm | - | - | - |
| 1777621664 | 16.11° C | 42% | 1018.8 hPa | 0 mm | - | - | - |
| 1777621064 | 15° C | 44% | 1018.8 hPa | 0 mm | - | - | - |
| 1777620463 | 15° C | 46% | 1018.7 hPa | 0 mm | - | - | - |
| 1777619862 | 14.44° C | 47% | 1018.6 hPa | 0 mm | - | - | - |
| 1777619262 | 14.44° C | 48% | 1018.6 hPa | 0 mm | - | - | - |
| 1777618661 | 13.33° C | 52% | 1018.6 hPa | 0 mm | - | - | - |
| 1777618065 | 12.78° C | 56% | 1018.6 hPa | 0 mm | - | - | - |
| 1777617461 | 12.22° C | 60% | 1018.6 hPa | 0 mm | - | - | - |
| 1777616860 | 11.11° C | 62% | 1018.7 hPa | 0 mm | - | - | - |
| 1777616259 | 10° C | 66% | 1018.6 hPa | 0 mm | - | - | - |
| 1777615658 | 9.44° C | 68% | 1018.7 hPa | 0 mm | - | - | - |
| 1777615058 | 8.33° C | 72% | 1018.7 hPa | 0 mm | - | - | - |
| 1777614458 | 7.78° C | 74% | 1018.8 hPa | 0 mm | - | - | - |
| 1777613855 | 7.22° C | 77% | 1018.8 hPa | 0 mm | - | - | - |
| 1777613254 | 6.67° C | 77% | 1018.7 hPa | 0 mm | - | - | - |
| 1777612654 | 6.67° C | 77% | 1018.7 hPa | 0 mm | - | - | - |
| 1777612053 | 6.67° C | 77% | 1018.6 hPa | 0 mm | - | - | - |
| 1777611453 | 6.67° C | 75% | 1018.6 hPa | 0 mm | - | - | - |
| 1777610852 | 6.67° C | 76% | 1018.5 hPa | 0 mm | - | - | - |
| 1777610252 | 6.11° C | 77% | 1018.5 hPa | 0 mm | - | - | - |
| 1777609651 | 6.11° C | 75% | 1018.6 hPa | 0 mm | - | - | - |
| 1777609051 | 6.11° C | 75% | 1018.6 hPa | 0 mm | - | - | - |
| 1777608450 | 6.11° C | 75% | 1018.7 hPa | 0 mm | - | - | - |
* Rain latest hour (hover to see other rain measurements)
** Current wind speed in m/s (hover to see current wind gust speed)